This is the latest recevied weather packets stored in our database for station/object KF5JED-13. If no packets are shown the sender has not sent any weather packets the latest 10 day(s).
| Time | Temp. | Humidity | Pressure | Rain* | Wind** | Luminosity | Snow |
|---|---|---|---|---|---|---|---|
| 1777769529 | 21.11° C | 22% | 1018.9 hPa | 0 mm | - | 49 W/m² | - |
| 1777769224 | 21.67° C | 22% | 1018.8 hPa | 0 mm | - | 57 W/m² | - |
| 1777768923 | 21.67° C | 21% | 1018.8 hPa | 0 mm | - | 71 W/m² | - |
| 1777768619 | 21.67° C | 22% | 1018.8 hPa | 0 mm | - | 87 W/m² | - |
| 1777768316 | 22.22° C | 21% | 1018.8 hPa | 0 mm | - | 101 W/m² | - |
| 1777768013 | 22.22° C | 21% | 1018.9 hPa | 0 mm | - | 108 W/m² | - |
| 1777767710 | 22.22° C | 22% | 1018.8 hPa | 0 mm | - | 127 W/m² | - |
| 1777767406 | 21.67° C | 22% | 1018.7 hPa | 0 mm | - | 148 W/m² | - |
| 1777767103 | 22.78° C | 21% | 1018.8 hPa | 0 mm | - | 161 W/m² | - |
| 1777766801 | 23.33° C | 20% | 1019 hPa | 0 mm | - | 173 W/m² | - |
| 1777766498 | 22.78° C | 20% | 1018.9 hPa | 0 mm | - | 184 W/m² | - |
| 1777766194 | 22.78° C | 20% | 1019 hPa | 0 mm | - | 193 W/m² | - |
| 1777765893 | 23.33° C | 20% | 1018.8 hPa | 0 mm | - | 208 W/m² | - |
| 1777765588 | 21.67° C | 21% | 1019 hPa | 0 mm | - | 215 W/m² | - |
| 1777765286 | 21.67° C | 21% | 1018.9 hPa | 0 mm | - | 77 W/m² | - |
| 1777764981 | 22.78° C | 20% | 1018.8 hPa | 0 mm | - | 262 W/m² | - |
| 1777764678 | 22.78° C | 21% | 1019 hPa | 0 mm | - | 284 W/m² | - |
| 1777764374 | 22.78° C | 21% | 1018.9 hPa | 0 mm | - | 307 W/m² | - |
| 1777764072 | 22.78° C | 21% | 1018.9 hPa | 0 mm | - | 333 W/m² | - |
| 1777763768 | 22.22° C | 22% | 1018.9 hPa | 0 mm | - | 347 W/m² | - |
| 1777763467 | 21.67° C | 22% | 1018.9 hPa | 0 mm | - | 253 W/m² | - |
| 1777763164 | 21.67° C | 21% | 1018.9 hPa | 0 mm | - | 102 W/m² | - |
| 1777762863 | 22.78° C | 21% | 1019.1 hPa | 0 mm | - | 108 W/m² | - |
| 1777762558 | 23.33° C | 20% | 1019 hPa | 0 mm | - | 433 W/m² | - |
| 1777762255 | 23.33° C | 20% | 1018.9 hPa | 0 mm | - | 440 W/m² | - |
* Rain latest hour (hover to see other rain measurements)
** Current wind speed in m/s (hover to see current wind gust speed)